Startseite
Über Mich
AHP4
Galerie
Sehschlangen
Tourenbuch
Bookmarks
Elektronik
Bewertung
Geschichten
[Tagesmessung] [Jahreswerte] [Information]

Messwerte vom 28.03.2022

Die letzten Messwerte von 23:58:48 Uhr:
KategorieMesswert
Temperatur [°C]3
Luftdruck [mBar]1000
Sonneneinstrahlung0
Wind [km/h]1 aus Südwest
Niederschlag [l/m²]0
rel.Luftfeucht.93.7%
CO2 [ppm]629

Diagramme
Messwerte vom 28.03.2022
Tagesaggregation
KategorieMinimumMaximumSchnittSumme
Temperatur [°C]0197.1979
Luftdruck [mBar]100010131005.8542
Sonneneinstrahlung246113.6917
Wind [km/h]16
rF [%]49.296.682.55
Niederschlag [l/m²]0
CO2 [ppm]403808679.8
Einordnung alsVegetationstag

Messungen an benachbarten Tagen: Zur Jahresaggregation 2022
Tabelle aller Messwerte
UhrzeitTemperatur [°C]Luftdruck [mBar]SonneWind [km/h]RichtungRegen [l/m²]rF [%]CO2 [ppm]
00:01:47 5 1013 0 0 SW 0 92.9 750
00:04:46 4 1012 0 0 SW 0 91.8 747
00:07:49 4 1012 0 0 SW 0 91.8 751
00:10:49 4 1012 0 0 SW 0 92 744
00:13:49 4 1012 0 0 SW 0 91.9 743
00:16:48 4 1012 0 0 SW 0 92 751
00:19:47 4 1012 0 0 SW 0 91.4 751
00:22:49 3 1012 0 0 SW 0 91.2 747
00:25:45 3 1011 0 0 SW 0 91.3 749
00:28:49 3 1012 0 0 SW 0 91.9 749
00:31:49 3 1012 0 0 SW 0 92.6 746
00:34:47 3 1011 0 0 SW 0 92.7 740
00:37:48 3 1012 0 0 SW 0 92.3 750
00:40:49 3 1012 0 0 SW 0 92.7 744
00:43:48 3 1012 0 0 SW 0 92.8 743
00:46:46 3 1011 0 0 SW 0 92.7 740
00:49:49 3 1012 0 0 SW 0 93.6 743
00:52:48 3 1012 0 0 SW 0 94 746
00:55:48 3 1012 0 0 SW 0 93.6 753
00:58:49 3 1011 0 0 SW 0 93.5 756
01:01:47 3 1011 0 0 SW 0 95.2 761
01:04:46 3 1011 0 0 SW 0 95.5 756
01:07:46 3 1011 0 0 SW 0 95.1 750
01:10:46 3 1010 0 0 SW 0 94.4 749
01:13:46 3 1011 0 0 SW 0 94.5 756
01:16:47 3 1011 0 0 SW 0 95.2 759
01:19:46 3 1010 0 0 SW 0 94.7 746
01:22:46 3 1010 0 0 SW 0 94.4 744
01:25:48 3 1011 0 0 SW 0 94.9 735
01:28:48 3 1011 0 0 SW 0 95.6 733
01:31:47 3 1011 0 0 SW 0 95.6 743
01:34:46 3 1011 0 0 SW 0 95.3 749
01:37:47 3 1011 0 0 SW 0 95.6 749
01:40:47 3 1011 0 0 SW 0 96.1 737
01:43:46 3 1010 0 0 SW 0 95.9 746
01:46:49 3 1011 0 0 SW 0 95.7 739
01:49:46 3 1012 0 0 SW 0 96.1 738
01:52:47 3 1011 0 0 SW 0 96.6 735
01:55:48 3 1011 0 0 SW 0 96.5 732
01:58:46 3 1011 0 0 SW 0 96.3 740
02:01:47 3 1010 0 0 SW 0 96.1 732
02:04:46 2 1011 0 0 SW 0 95.7 736
02:07:48 2 1011 0 0 SW 0 95.6 736
02:10:47 2 1011 0 0 SW 0 95.5 741
02:13:47 2 1011 0 0 SW 0 95.2 750
02:16:49 2 1011 0 0 SW 0 95.3 748
02:19:48 2 1011 0 0 SW 0 95.4 748
02:22:47 2 1010 0 0 SW 0 95.6 738
02:25:45 2 1010 0 0 O 0 95.6 737
02:28:46 2 1010 0 0 O 0 95.8 745
02:31:46 2 1010 0 0 O 0 95.9 749
02:34:45 2 1010 0 0 O 0 96.2 741
02:37:50 2 1010 0 0 O 0 96 741
02:40:48 2 1010 0 0 O 0 95.8 739
02:43:46 2 1010 0 0 O 0 96 733
02:46:46 2 1010 0 0 O 0 96.1 736
02:49:45 2 1010 0 0 O 0 96.1 738
02:52:47 2 1011 0 0 O 0 96.1 733
02:55:47 2 1010 0 0 O 0 96.2 739
02:58:44 2 1011 0 0 O 0 96.1 743
03:01:47 1 1010 0 0 O 0 96 752
03:04:48 1 1010 0 0 O 0 95.9 749
03:07:44 1 1010 0 0 O 0 96.1 755
03:10:44 1 1010 0 0 O 0 96.1 743
03:13:45 1 1010 0 0 O 0 96.3 740
03:16:45 2 1010 0 0 O 0 96.3 732
03:19:47 2 1010 0 0 O 0 96.1 734
03:22:45 2 1010 0 0 O 0 96 738
03:25:46 2 1010 0 0 O 0 96.3 746
03:28:45 2 1010 0 0 O 0 96.6 746
03:31:46 2 1010 0 0 O 0 96.6 746
03:34:47 2 1010 0 0 O 0 96.6 747
03:37:48 2 1010 0 0 O 0 96.6 742
03:40:48 2 1010 0 0 O 0 96.6 741
03:43:45 2 1010 0 0 O 0 96.6 741
03:46:45 2 1010 0 0 O 0 96.6 741
03:49:46 1 1010 0 0 O 0 96.6 736
03:52:45 1 1010 0 0 O 0 96.6 724
03:55:47 1 1010 0 0 O 0 96.6 723
03:58:43 1 1010 0 0 O 0 96.6 723
04:01:45 1 1010 0 0 O 0 96.6 729
04:04:44 1 1010 0 0 O 0 96.6 737
04:07:46 1 1010 0 0 O 0 96.6 731
04:10:46 1 1010 0 0 O 0 96.6 730
04:13:45 2 1010 0 0 O 0 96.6 732
04:16:46 2 1009 0 0 W 0 96.6 736
04:19:46 2 1010 0 0 W 0 96.6 738
04:22:46 2 1010 0 0 W 0 96.6 736
04:25:44 1 1010 0 0 W 0 96.6 735
04:28:46 1 1010 0 0 N 0 96.6 733
04:31:47 1 1010 0 0 N 0 96.6 727
04:34:45 1 1010 0 0 N 0 96.6 718
04:37:46 1 1010 0 0 N 0 96.6 718
04:40:47 1 1010 0 0 S 0 96.6 717
04:43:47 1 1010 0 0 NO 0 96.6 723
04:46:47 1 1010 0 0 NW 0 96.6 730
04:49:45 1 1010 0 0 S 0 96.6 732
04:52:47 1 1010 0 0 NW 0 96.6 733
04:55:48 1 1010 0 0 NW 0 96.6 733
04:58:47 1 1010 0 0 NW 0 96.6 732
05:01:47 1 1010 0 0 NW 0 96.6 733
05:04:47 1 1009 0 0 NW 0 96.6 732
05:07:48 1 1009 0 0 NW 0 96.6 732
05:10:48 1 1009 0 0 NW 0 96.6 736
05:13:48 1 1010 0 0 NW 0 96.6 736
05:16:47 1 1010 0 0 NW 0 96.6 738
05:19:48 1 1010 0 0 NW 0 96.6 735
05:22:48 1 1009 0 0 NW 0 96.6 735
05:25:46 1 1009 0 0 NW 0 96.6 729
05:28:47 1 1010 0 0 NW 0 96.6 725
05:31:46 1 1009 0 0 NW 0 96.6 727
05:34:49 0 1009 0 0 NW 0 96.6 728
05:37:48 0 1010 0 0 NW 0 96.6 726
05:40:48 0 1009 0 0 NW 0 96.6 729
05:43:47 0 1009 0 0 NW 0 96.6 720
05:46:46 0 1009 0 0 NW 0 96.6 723
05:49:48 0 1009 0 0 NW 0 96.6 726
05:52:47 0 1009 0 0 NW 0 96.6 723
05:55:47 1 1010 0 1 SW 0 96.6 718
05:58:47 1 1010 0 0 SW 0 96.6 717
06:01:47 1 1010 0 0 SW 0 96.6 714
06:04:47 1 1010 0 0 SW 0 96.6 715
06:07:48 1 1009 0 0 SW 0 96.6 715
06:10:51 1 1009 0 0 SW 0 96.6 704
06:13:49 1 1009 0 0 SW 0 96.6 707
06:16:48 1 1009 0 0 SW 0 96.6 713
06:19:46 1 1010 0 0 SO 0 96.6 718
06:22:50 1 1009 0 0 SO 0 96.6 721
06:25:46 1 1009 0 0 W 0 96.6 717
06:28:47 1 1009 0 0 NW 0 96.6 710
06:31:45 1 1009 0 0 S 0 96.6 714
06:34:48 1 1009 0 0 S 0 96.6 710
06:37:47 1 1009 3 0 S 0 96.6 717
06:40:47 1 1009 5 0 S 0 96.6 715
06:43:44 1 1009 9 0 S 0 96.6 716
06:46:47 1 1009 14 1 W 0 96.6 705
06:49:49 1 1009 22 0 W 0 96.6 705
06:52:47 1 1009 32 0 W 0 96.6 702
06:55:47 1 1008 44 0 W 0 96.6 702
06:58:46 1 1009 58 0 W 0 96.6 707
07:01:52 1 1009 73 0 W 0 96.6 718
07:04:48 1 1009 86 0 W 0 96.6 708
07:07:48 1 1009 98 0 W 0 96.6 700
07:10:48 1 1009 109 0 W 0 96.6 697
07:13:51 1 1009 118 0 NW 0 96.6 701
07:16:48 1 1009 123 0 NW 0 96.6 694
07:19:50 1 1009 127 0 NW 0 96.6 695
07:22:49 1 1009 132 0 NW 0 96.6 693
07:25:49 1 1009 137 0 NW 0 96.6 709
07:28:48 1 1009 139 0 NW 0 96.6 711
07:31:48 1 1009 140 0 NW 0 96.6 718
07:34:49 1 1009 142 0 NW 0 96.6 718
07:37:46 2 1009 144 0 W 0 96.6 718
07:40:46 2 1009 148 0 S 0 96.6 712
07:43:47 2 1008 153 0 NO 0 96.6 711
07:46:47 2 1009 155 1 W 0 96.6 726
07:49:49 2 1008 160 0 SW 0 96.6 739
07:52:49 3 1009 164 1 SW 0 96.6 735
07:55:49 3 1008 168 0 SW 0 96.6 732
07:58:46 3 1008 171 1 W 0 96.6 732
08:01:51 3 1008 176 1 SW 0 96.6 730
08:04:49 3 1008 179 0 SO 0 96.6 729
08:07:49 3 1008 180 0 N 0 96.6 725
08:10:48 3 1009 181 1 SW 0 96.6 732
08:13:49 3 1008 183 3 W 0 96.6 732
08:16:50 3 1008 185 1 SW 0 96.6 733
08:19:47 3 1007 187 1 W 0 96.6 729
08:22:47 3 1008 189 0 O 0 96.6 724
08:25:49 3 1008 190 0 SO 0 96.6 730
08:28:49 3 1008 192 0 S 0 96.6 729
08:31:49 3 1008 192 1 SW 0 96.6 732
08:34:48 3 1008 195 0 SW 0 96.6 732
08:37:48 3 1008 195 0 SW 0 96.6 746
08:40:55 3 1007 197 0 W 0 96.6 754
08:43:50 3 1008 199 0 SO 0 96.6 761
08:46:49 4 1008 198 0 SO 0 96.6 750
08:49:48 4 1008 202 0 W 0 96.6 747
08:52:47 4 1008 201 1 W 0 96.6 741
08:55:49 4 1008 202 1 SW 0 96.6 744
08:58:48 4 1008 202 1 S 0 96.6 743
09:01:53 4 1008 203 0 SW 0 96.6 744
09:04:49 4 1008 204 1 SW 0 96.6 735
09:07:52 4 1008 206 3 S 0 96.6 740
09:10:47 4 1008 205 1 W 0 96.6 741
09:13:51 4 1007 206 0 SW 0 96.6 743
09:16:49 4 1008 207 0 SW 0 96.6 747
09:19:45 4 1007 206 1 W 0 96.6 744
09:22:49 5 1007 209 0 SW 0 96.6 743
09:25:48 5 1007 208 0 SW 0 96.6 747
09:28:49 5 1008 209 1 SW 0 96.6 752
09:31:48 5 1007 207 1 SW 0 96.6 746
09:34:46 5 1007 210 1 S 0 96.6 754
09:37:48 6 1007 211 0 SW 0 96.6 755
09:40:49 6 1008 213 0 SW 0 96.6 752
09:43:49 6 1007 214 1 SW 0 96.6 749
09:46:49 6 1007 215 0 SW 0 96.6 739
09:49:47 6 1007 215 0 SW 0 96.6 743
09:52:48 6 1006 215 0 SW 0 96.6 748
09:55:49 6 1007 213 0 SW 0 96.6 758
09:58:49 6 1007 215 3 W 0 96.5 760
10:01:47 6 1007 214 3 SO 0 96.3 767
10:04:45 6 1007 214 0 S 0 96.1 761
10:07:51 6 1007 216 1 W 0 95.7 765
10:10:50 6 1008 217 4 SW 0 95.3 773
10:13:47 6 1008 215 0 N 0 94.8 764
10:16:47 6 1006 219 3 S 0 94.5 752
10:19:47 6 1007 219 4 W 0 94.3 748
10:22:49 7 1008 218 3 SW 0 93.8 758
10:25:47 7 1007 218 6 W 0 94.2 758
10:28:48 7 1007 220 4 S 0 93.9 750
10:31:48 7 1007 220 7 NW 0 92.7 752
10:34:47 7 1006 219 3 NW 0 93.4 749
10:37:48 7 1008 218 4 W 0 92.3 747
10:40:48 7 1007 222 3 NW 0 92.6 749
10:43:49 7 1006 219 4 S 0 93 755
10:46:48 7 1007 218 2 W 0 92.4 756
10:49:49 7 1007 218 9 NW 0 91.5 758
10:52:48 7 1007 220 1 SW 0 90.6 754
10:55:47 7 1006 222 0 W 0 90.2 755
10:58:47 7 1006 220 7 N 0 91 755
11:01:50 7 1007 222 5 SO 0 90.2 762
11:04:48 7 1006 220 1 SW 0 90.9 761
11:07:48 7 1007 222 4 SW 0 90.8 764
11:10:47 7 1006 221 5 NW 0 89.6 773
11:13:47 7 1007 224 1 SW 0 89.3 772
11:16:49 7 1007 222 6 NW 0 89.7 782
11:19:49 7 1006 223 3 NW 0 89.7 788
11:22:47 8 1007 221 5 W 0 90.4 790
11:25:47 8 1007 224 1 W 0 89.6 788
11:28:51 8 1006 216 0 SW 0 87.9 778
11:31:48 8 1007 219 2 SW 0 86.8 777
11:34:49 8 1007 220 2 NW 0 86.1 785
11:37:49 8 1006 214 0 NW 0 87.3 779
11:40:47 8 1006 206 2 SW 0 87.6 773
11:43:47 8 1007 209 4 W 0 87.1 773
11:46:48 8 1006 209 1 SW 0 87.4 787
11:49:47 8 1006 209 4 SW 0 88.5 782
11:52:46 8 1006 209 4 W 0 88.2 785
11:55:47 8 1006 209 4 W 0 87.6 773
11:58:49 8 1006 209 1 SW 0 87.9 781
12:01:47 8 1006 210 2 SW 0 87.7 791
12:04:47 8 1006 210 1 W 0 87.1 794
12:07:50 9 1006 210 13 W 0 85.3 798
12:10:49 9 1006 210 2 N 0 84.6 808
12:13:48 9 1006 210 1 W 0 83.6 797
12:16:48 9 1006 211 11 W 0 83.7 789
12:19:51 9 1006 211 0 SO 0 84 800
12:22:47 10 1006 211 1 W 0 83.8 805
12:25:48 10 1006 188 4 S 0 83.2 758
12:28:49 11 1006 212 8 SW 0 81.5 642
12:31:51 11 1006 212 10 SW 0 80.3 652
12:34:48 11 1006 213 9 S 0 78.5 706
12:37:47 11 1006 213 1 N 0 75 708
12:40:48 11 1006 213 4 N 0 74.5 709
12:43:47 11 1006 213 4 S 0 76 705
12:46:49 11 1006 214 16 NW 0 72.7 724
12:49:49 11 1006 214 4 W 0 72.2 726
12:52:32 10 1006 214 7 NW 0 65.2 724
12:55:47 11 1006 215 4 N 0 75.4 721
12:58:49 11 1006 216 3 NW 0 73.8 712
13:01:49 11 1006 216 12 0 74.6 712
13:04:46 11 1006 217 1 W 0 75.2 732
13:07:48 12 1006 217 12 N 0 73.1 741
13:10:47 11 1006 218 3 N 0 73.1 737
13:13:49 11 1006 219 4 NW 0 75.8 732
13:16:47 12 1006 220 0 W 0 76.7 708
13:19:47 13 1006 221 8 N 0 69.9 705
13:22:48 12 1006 221 2 W 0 71.5 702
13:25:48 13 1006 222 4 NW 0 72.2 704
13:28:51 13 1006 222 9 NW 0 71.2 712
13:31:49 13 1006 223 1 SW 0 71.9 718
13:34:47 14 1006 224 1 O 0 70.4 717
13:37:48 14 1006 224 0 W 0 69.5 722
13:40:47 15 1006 224 5 W 0 67.5 724
13:43:49 15 1005 226 10 SW 0 65.6 723
13:46:49 16 1006 227 2 NW 0 63.9 735
13:49:47 15 1006 228 1 N 0 63.1 733
13:52:50 15 1006 229 4 NW 0 63.2 736
13:55:48 15 1005 229 4 W 0 62.6 733
13:58:48 15 1005 220 3 SW 0 62.6 726
14:01:50 15 1005 221 13 W 0 63.1 498
14:04:48 15 1006 231 9 W 0 62.7 466
14:07:47 15 1005 232 8 W 0 62.7 507
14:10:49 15 1005 232 3 S 0 62.9 565
14:13:48 16 1005 232 3 W 0 63.1 591
14:16:50 15 1005 233 3 SW 0 62.8 593
14:19:48 15 1005 233 0 N 0 62.1 597
14:22:48 16 1005 233 5 S 0 61.6 608
14:25:46 16 1005 233 11 W 0 61.7 615
14:28:50 16 1004 233 1 SW 0 60.8 620
14:31:45 16 1004 234 3 N 0 61.1 615
14:34:50 16 1005 236 3 NO 0 60.4 609
14:37:50 16 1004 236 6 SW 0 60.8 627
14:40:47 16 1004 237 7 W 0 60.8 635
14:43:49 16 1004 239 9 W 0 60.6 635
14:46:47 16 1004 241 10 W 0 59.9 647
14:49:48 16 1004 242 3 S 0 59.5 645
14:52:45 16 1004 242 5 N 0 60.7 644
14:55:48 17 1003 242 4 NW 0 59.5 656
14:58:51 17 1004 243 5 NO 0 58.9 660
15:01:47 17 1004 243 7 N 0 58.1 664
15:04:49 17 1004 244 1 SW 0 57.6 665
15:07:48 17 1003 244 5 SW 0 58.3 673
15:10:48 17 1003 244 7 W 0 56.6 678
15:13:46 16 1003 244 5 W 0 55.9 682
15:16:50 17 1003 245 2 W 0 57.5 686
15:19:48 17 1004 245 4 W 0 57.9 693
15:22:47 18 1003 245 1 W 0 57 700
15:25:48 19 1003 245 3 NW 0 51.5 702
15:28:50 19 1004 245 5 SW 0 51.3 708
15:31:48 19 1003 245 2 NW 0 51.1 712
15:34:50 18 1003 245 1 NW 0 50.6 714
15:37:47 17 1002 245 5 SW 0 51.5 712
15:40:48 17 1003 246 9 SW 0 51.8 695
15:43:48 17 1002 245 11 SW 0 53 685
15:46:48 17 1003 246 7 SW 0 52.7 697
15:49:51 17 1002 246 5 NW 0 52.5 691
15:52:49 18 1003 246 9 SW 0 52.2 697
15:55:51 18 1002 246 7 NW 0 52 689
15:58:48 17 1003 246 9 W 0 50.8 688
16:01:49 17 1002 246 11 NO 0 50.7 688
16:04:47 16 1002 246 8 W 0 51.4 689
16:07:48 16 1002 245 4 S 0 52.9 688
16:10:49 17 1002 243 3 S 0 51.2 685
16:13:52 16 1002 240 6 W 0 50.5 682
16:16:49 16 1002 242 1 SW 0 50.5 689
16:19:49 16 1002 241 3 SW 0 52.2 692
16:22:48 16 1002 244 7 W 0 52.2 697
16:25:53 16 1002 238 1 SW 0 53 699
16:28:48 16 1002 235 6 SO 0 52.9 712
16:31:50 16 1002 234 4 SW 0 52.7 650
16:34:48 16 1002 234 8 W 0 52.6 641
16:37:51 16 1002 238 8 W 0 52.2 667
16:40:50 16 1002 246 6 W 0 52.8 677
16:43:50 16 1002 245 7 NW 0 53 680
16:46:52 16 1002 245 6 NW 0 49.2 671
16:49:48 15 1002 246 11 W 0 52 674
16:52:50 16 1002 246 3 W 0 54.9 686
16:55:50 16 1002 246 15 W 0 52.3 685
16:58:48 16 1002 246 7 W 0 52.4 692
17:01:50 16 1002 246 4 SW 0 52.9 692
17:04:47 17 1002 246 7 SW 0 52.9 703
17:07:48 17 1002 246 2 W 0 51.3 704
17:10:47 17 1002 246 1 W 0 51.4 710
17:13:48 16 1002 246 6 W 0 51.5 712
17:16:49 16 1002 246 6 SW 0 51.2 715
17:19:48 16 1002 246 1 SO 0 52 715
17:22:47 16 1002 246 5 W 0 52.7 718
17:25:45 16 1002 246 1 S 0 52.2 723
17:28:47 16 1002 246 3 S 0 52.4 724
17:31:48 16 1002 246 10 W 0 52.2 726
17:34:48 16 1002 245 1 SW 0 52.5 725
17:37:47 16 1002 244 6 N 0 53.3 717
17:40:48 16 1002 244 1 NW 0 53.3 705
17:43:47 16 1002 245 5 W 0 53.4 714
17:46:48 16 1002 246 5 W 0 53.5 709
17:49:48 15 1002 245 3 W 0 53.5 706
17:52:47 15 1002 244 8 W 0 54.1 679
17:55:47 15 1002 246 14 NW 0 54.1 656
17:58:50 15 1002 246 6 NW 0 53.3 642
18:01:49 15 1002 246 3 SO 0 53.9 661
18:04:48 15 1002 246 12 W 0 54.8 677
18:07:49 15 1002 245 3 SW 0 54.4 680
18:10:49 15 1002 244 2 NO 0 55 679
18:13:49 14 1002 244 10 SW 0 54.3 673
18:16:49 14 1002 243 4 NW 0 54.2 665
18:19:50 14 1002 242 8 NW 0 56.1 656
18:22:51 14 1002 240 7 SO 0 55.9 647
18:25:51 14 1002 236 4 SW 0 55.8 638
18:28:49 14 1002 230 11 W 0 56.1 638
18:31:47 13 1002 229 5 S 0 55.4 635
18:34:51 13 1001 231 5 NW 0 56.4 635
18:37:49 13 1002 231 3 W 0 56.8 632
18:40:49 13 1002 237 4 NW 0 56.9 626
18:43:49 13 1002 233 6 SO 0 57.1 626
18:46:48 13 1002 236 0 W 0 57.4 620
18:49:52 13 1002 232 2 SW 0 57.9 621
18:52:49 13 1003 237 2 S 0 58.8 622
18:55:50 12 1002 232 3 W 0 59.7 625
18:58:49 12 1002 204 2 W 0 59.9 628
19:01:52 12 1002 200 2 SW 0 60.2 619
19:04:48 12 1002 197 5 W 0 60.6 622
19:07:50 12 1002 124 1 SW 0 60.9 610
19:10:47 12 1001 119 1 W 0 61.3 427
19:13:49 11 1001 113 2 SW 0 62.3 408
19:16:48 11 1002 109 1 SW 0 63.4 407
19:19:46 11 1002 103 3 W 0 64.7 404
19:22:48 10 1001 96 3 NW 0 65.6 404
19:25:49 10 1001 89 3 W 0 66.5 407
19:28:49 10 1001 158 2 SW 0 67.1 404
19:31:48 10 1001 149 2 SW 0 67.7 408
19:34:48 9 1002 139 0 SW 0 68.2 404
19:37:48 9 1001 127 1 SW 0 69 407
19:40:47 9 1001 114 1 SW 0 69.5 407
19:43:46 9 1002 99 1 S 0 70.1 406
19:46:50 9 1001 83 0 SW 0 70.8 407
19:49:47 8 1001 66 3 W 0 71.3 407
19:52:46 8 1001 50 1 W 0 72.3 404
19:55:48 8 1001 37 1 SW 0 72.7 406
19:58:46 8 1001 26 3 S 0 73.2 407
20:01:48 8 1001 17 1 SW 0 73.9 403
20:04:46 8 1001 11 3 W 0 74.4 407
20:07:46 8 1001 7 3 SW 0 74.8 416
20:10:45 8 1000 5 2 W 0 75.3 412
20:13:46 8 1001 3 1 W 0 75.6 436
20:16:46 7 1002 0 1 SW 0 75.9 436
20:19:46 7 1001 0 1 SW 0 76.3 451
20:22:47 7 1001 0 1 SW 0 76.7 448
20:25:45 7 1001 0 3 SW 0 77.1 439
20:28:45 7 1002 0 1 W 0 77.6 442
20:31:47 7 1001 0 2 NW 0 78.2 451
20:34:48 7 1001 0 2 NW 0 78.7 460
20:37:46 7 1001 0 2 W 0 79.1 469
20:40:48 7 1002 0 0 W 0 79.6 480
20:43:47 7 1002 0 2 W 0 79.9 483
20:46:49 7 1002 0 2 SW 0 80.1 489
20:49:47 7 1002 0 1 SW 0 80.5 486
20:52:48 7 1002 0 1 W 0 81.3 486
20:55:49 7 1002 0 2 W 0 81.4 480
20:58:47 7 1002 0 2 SW 0 81.6 490
21:01:47 7 1002 0 3 SO 0 82.1 497
21:04:48 7 1002 0 2 SW 0 82.8 501
21:07:46 7 1001 0 3 W 0 82.8 514
21:10:46 7 1002 0 1 W 0 82.9 513
21:13:45 7 1001 0 2 W 0 83 516
21:16:47 7 1001 0 2 W 0 83.5 517
21:19:47 6 1002 0 2 W 0 84 522
21:22:46 6 1002 0 0 W 0 84.5 533
21:25:48 6 1001 0 3 W 0 84.7 536
21:28:50 6 1002 0 2 W 0 85.2 536
21:31:47 6 1002 0 2 W 0 85.8 550
21:34:49 6 1002 0 5 W 0 87.3 556
21:37:49 6 1002 0 5 NW 0 87.7 563
21:40:49 7 1001 0 4 W 0 88.4 557
21:43:47 7 1002 0 1 W 0 88.6 565
21:46:45 7 1001 0 2 W 0 87.6 565
21:49:46 6 1001 0 8 N 0 87.2 574
21:52:48 6 1001 0 3 NW 0 87.9 572
21:55:45 6 1001 0 6 W 0 88.1 584
21:58:48 6 1001 0 5 NW 0 88.1 580
22:01:47 6 1001 0 1 W 0 88.3 581
22:04:49 6 1001 0 4 NW 0 87.8 578
22:07:51 6 1001 0 10 NW 0 89.9 575
22:10:49 6 1001 0 6 NW 0 90.5 579
22:13:49 6 1001 0 3 W 0 90.6 583
22:16:48 6 1001 0 4 NW 0 90.7 592
22:19:48 6 1001 0 7 SW 0 90.5 589
22:22:48 6 1001 0 8 W 0 90.6 586
22:25:48 6 1001 0 3 W 0 91 589
22:28:47 6 1001 0 7 W 0 90.7 594
22:31:46 6 1001 0 4 W 0 90.4 592
22:34:47 6 1000 0 3 NW 0 90.4 595
22:37:47 6 1002 0 5 NW 0 90.1 592
22:40:48 5 1001 0 5 W 0 91.8 598
22:43:46 5 1002 0 4 W 0 91.8 601
22:46:47 5 1002 0 7 NW 0 91.9 606
22:49:49 5 1001 0 5 NW 0 92.1 607
22:52:48 5 1001 0 5 NW 0 92.2 608
22:55:46 5 1001 0 4 W 0 92.2 606
22:58:47 5 1001 0 4 W 0 91.9 610
23:01:49 5 1002 0 0 S 0 91.9 613
23:04:45 5 1001 0 3 W 0 91.9 601
23:07:50 5 1000 0 4 NW 0 92.1 618
23:10:46 5 1001 0 3 W 0 92.4 616
23:13:48 5 1001 0 3 W 0 92.9 609
23:16:46 5 1001 0 6 W 0 93 616
23:19:48 5 1000 0 4 NW 0 93.2 615
23:22:47 5 1001 0 6 SW 0 93.3 619
23:25:45 5 1001 0 0 W 0 93.1 612
23:28:48 4 1001 0 2 SW 0 92.5 621
23:31:49 4 1000 0 1 SW 0 92.3 622
23:34:48 4 1001 0 2 NW 0 92.5 635
23:37:48 4 1001 0 2 SW 0 92.8 629
23:40:46 4 1001 0 1 W 0 92.8 644
23:43:47 4 1001 0 3 W 0 92.8 645
23:46:45 4 1001 0 0 W 0 93 644
23:49:45 4 1000 0 0 W 0 93.1 633
23:52:46 3 1001 0 0 SW 0 93.3 621
23:55:47 3 1001 0 1 SW 0 93.6 627
23:58:48 3 1000 0 1 SW 0 93.7 629

Letzte Änderung : 04-Jan-2022
Copyright Jens Köhler, Wolfsburg, Obere Dorfstraße 10d